• Join FlightAware (Why Join?)
  • Login
  • US Flag 
05:46AM EST


 

Airport Tracker/Info


-or-


 

Live Flight TrackerFlight Track Log ✈ SWA2150 ✈ 18-Aug-2013 ✈ KBWI - KTPA

Flight Track Log - Related Links

Times and Time Zones

All times are in EDT time to prevent confusion due to time zone crossing. See the SWA2150 flight status page for this flight to view local times or setup timezone preferences in your user account.

Time Position Orientation Groundspeed Altitude Reporting Facility
EDT Latitude Longitude Course Direction KTS MPH feet Rate Location/Type
09:10PM 39.1760 -76.7130 274° West 184 212 1,900  Level FlightAware
09:10PM 39.1790 -76.7630 274° West 201 231 2,600 2,100 Climbing FlightAware
09:10PM 39.1800 -76.7830 274° West 225 259 3,300 2,217 Climbing FlightAware
09:11PM 39.1830 -76.8170 277° West 227 261 4,300 2,488 Climbing FlightAware
09:11PM 39.1850 -76.8400 276° West 232 267 5,000 2,615 Climbing FlightAware
09:12PM 39.1890 -76.8790 278° West 266 306 6,000 3,000 Climbing FlightAware
09:12PM 39.1920 -76.9130 277° West 272 313 7,200 3,480 Climbing FlightAware
09:12PM 39.1960 -76.9560 277° West 281 323 8,900 3,231 Climbing FlightAware
09:13PM 39.2010 -77.0140 276° West 298 343 10,700 2,451 Climbing FlightAware
09:14PM 39.2070 -77.0890 276° West 342 394 11,800 2,182 Climbing FlightAware
09:14PM 39.2010 -77.1520 263° West 357 411 13,100 2,640 Climbing FlightAware
09:14PM 39.1800 -77.1830 229° Southwest 367 422 14,000 2,945 Climbing FlightAware
09:15PM 39.1310 -77.2250 214° Southwest 372 428 15,800 3,046 Climbing FlightAware
09:15PM 39.0860 -77.2600 211° Southwest 377 434 17,300 2,677 Climbing FlightAware
09:16PM 39.0260 -77.2900 201° Southwest 392 451 18,700 2,400 Climbing FlightAware
09:17PM 38.9600 -77.3190 199° South 401 461 20,300 2,571 Climbing FlightAware
09:17PM 38.9030 -77.3440 199° South 404 465 21,700 2,492 Climbing FlightAware
09:18PM 38.8410 -77.3710 199° South 403 464 23,000 1,040 Climbing FlightAware
09:18PM 38.7700 -77.4030 199° South 405 466 23,000 720 Level FlightAware
09:19PM 38.7120 -77.4280 199° South 407 468 23,900 1,938 Climbing FlightAware
09:20PM 38.6560 -77.4530 199° South 407 468 25,100 2,215 Climbing FlightAware
09:20PM 38.5960 -77.4890 205° Southwest 405 466 26,300 1,840 Climbing FlightAware
09:21PM 38.5380 -77.5470 218° Southwest 408 470 27,400 1,760 Climbing FlightAware
09:21PM 38.4850 -77.6000 218° Southwest 409 471 28,500 1,938 Climbing FlightAware
09:22PM 38.4410 -77.6450 219° Southwest 406 467 29,500 2,123 Climbing FlightAware
09:22PM 38.3910 -77.6960 219° Southwest 399 459 30,800 2,080 Climbing FlightAware
09:23PM 38.3320 -77.7560 219° Southwest 394 453 32,100 1,750 Climbing FlightAware
09:24PM 38.2860 -77.8020 218° Southwest 394 453 32,900 1,588 Climbing FlightAware
09:24PM 38.2340 -77.8550 219° Southwest 392 451 33,900 1,500 Climbing FlightAware
09:25PM 38.1820 -77.9070 218° Southwest 394 453 34,700 1,333 Climbing FlightAware
09:25PM 38.1320 -77.9570 218° Southwest 394 453 35,500 1,083 Climbing FlightAware
09:26PM 38.0820 -78.0080 219° Southwest 394 453 36,000 429 Climbing FlightAware
09:27PM 38.0310 -78.0580 218° Southwest 394 453 36,000  Level FlightAware
09:27PM 37.9800 -78.1090 218° Southwest 393 452 36,000  Level FlightAware
09:28PM 37.9290 -78.1600 218° Southwest 392 451 36,000  Level FlightAware
09:28PM 37.8840 -78.2050 218° Southwest 391 450 36,000 441 Level FlightAware
09:29PM 37.8310 -78.2570 218° Southwest 391 450 36,500 1,029 Climbing FlightAware
09:30PM 37.7830 -78.3050 218° Southwest 390 449 37,200 1,114 Climbing FlightAware
09:30PM 37.7320 -78.3550 218° Southwest 391 450 37,800 686 Climbing FlightAware
09:31PM 37.6830 -78.4040 218° Southwest 394 453 38,000 171 Climbing FlightAware
09:31PM 37.6320 -78.4550 218° Southwest 393 452 38,000  Level FlightAware
09:32PM 37.5810 -78.5050 218° Southwest 392 451 38,000  Level FlightAware
09:32PM 37.5340 -78.5510 218° Southwest 392 451 38,000  Level FlightAware
09:33PM 37.4800 -78.6040 218° Southwest 392 451 38,000  Level FlightAware
09:34PM 37.4350 -78.6480 218° Southwest 391 450 38,000  Level FlightAware
09:34PM 37.3820 -78.7000 218° Southwest 391 450 38,000  Level FlightAware
09:35PM 37.3350 -78.7460 218° Southwest 307 353 38,000  Level FlightAware
09:35PM 37.2870 -78.7920 217° Southwest 390 449 38,000  Level FlightAware
09:36PM 37.2340 -78.8440 218° Southwest 389 448 38,000  Level FlightAware
09:37PM 37.1630 -78.9130 218° Southwest 390 449 38,000  Level FlightAware
09:37PM 37.1020 -78.9700 217° Southwest 392 451 38,000  Level FlightAware
09:38PM 37.0410 -79.0090 207° Southwest 398 458 38,000  Level FlightAware
09:39PM 36.9870 -79.0410 205° Southwest 398 458 38,000  Level FlightAware
09:39PM 36.9270 -79.0760 205° Southwest 397 457 38,000  Level FlightAware
09:40PM 36.8680 -79.1110 205° Southwest 396 456 38,000  Level FlightAware
09:40PM 36.8110 -79.1440 205° Southwest 396 456 38,000  Level FlightAware
09:41PM 36.7520 -79.1790 205° Southwest 396 456 38,000  Level FlightAware
09:42PM 36.6980 -79.2100 205° Southwest 396 456 38,000  Level FlightAware
09:42PM 36.6440 -79.2420 205° Southwest 397 457 38,000  Level FlightAware
09:43PM 36.5930 -79.2720 205° Southwest 389 448 38,000  Level FlightAware
09:43PM 36.5240 -79.3120 205° Southwest 390 449 38,000  Level FlightAware
09:44PM 36.4670 -79.3450 205° Southwest 389 448 38,000  Level FlightAware
09:44PM 36.4090 -79.3790 205° Southwest 389 448 38,000  Level FlightAware
09:45PM 36.3500 -79.4130 205° Southwest 394 453 38,000  Level FlightAware
09:46PM 36.2850 -79.4510 205° Southwest 393 452 38,000  Level FlightAware
09:46PM 36.2260 -79.4850 205° Southwest 391 450 38,000  Level FlightAware
09:47PM 36.1590 -79.5240 205° Southwest 391 450 38,000  Level FlightAware
09:48PM 36.1020 -79.5580 206° Southwest 392 451 38,000  Level FlightAware
09:48PM 36.0340 -79.5960 204° Southwest 392 451 38,000  Level FlightAware
09:49PM 35.9860 -79.6230 204° Southwest 392 451 38,000  Level FlightAware
09:49PM 35.9270 -79.6570 205° Southwest 394 453 38,000  Level FlightAware
09:50PM 35.8690 -79.6900 205° Southwest 394 453 38,000  Level FlightAware
09:51PM 35.8030 -79.7280 205° Southwest 389 448 38,000  Level FlightAware
09:51PM 35.7550 -79.7550 205° Southwest 389 448 38,000  Level FlightAware
09:52PM 35.6930 -79.7900 205° Southwest 390 449 38,000  Level FlightAware
09:52PM 35.6360 -79.8230 205° Southwest 390 449 38,000  Level FlightAware
09:53PM 35.5610 -79.8650 204° Southwest 390 449 38,000  Level FlightAware
09:54PM 35.5090 -79.8950 205° Southwest 391 450 38,000  Level FlightAware
09:54PM 35.4480 -79.9300 205° Southwest 392 451 38,000  Level FlightAware
09:55PM 35.3830 -79.9660 204° Southwest 393 452 38,000  Level FlightAware
09:55PM 35.3330 -79.9940 205° Southwest 394 453 38,000  Level FlightAware
09:56PM 35.2740 -80.0280 205° Southwest 394 453 38,000  Level FlightAware
09:56PM 35.2220 -80.0560 204° Southwest 302 348 38,000  Level FlightAware
09:57PM 35.1490 -80.0980 205° Southwest 402 463 38,000  Level FlightAware
09:58PM 35.1020 -80.1240 204° Southwest 403 464 38,000  Level FlightAware
09:58PM 35.0380 -80.1600 205° Southwest 404 465 38,000  Level FlightAware
09:59PM 34.9670 -80.1990 204° Southwest 405 466 38,000  Level FlightAware
10:00PM 34.9010 -80.2370 205° Southwest 404 465 38,000  Level FlightAware
10:00PM 34.8440 -80.2680 204° Southwest 403 464 38,000  Level FlightAware
10:01PM 34.7620 -80.3130 204° Southwest 404 465 38,000  Level FlightAware
10:02PM 34.9550 -80.2060 24° Northeast 407 468 38,000  Level FlightAware
10:02PM 34.6320 -80.3860 205° Southwest 407 468 38,000  Level FlightAware
10:03PM 34.5670 -80.4220 205° Southwest 409 471 38,000  Level FlightAware
10:03PM 34.5100 -80.4530 204° Southwest 409 471 38,000  Level FlightAware
10:04PM 34.4200 -80.5020 204° Southwest 409 471 38,000  Level FlightAware
10:05PM 34.3290 -80.5520 204° Southwest 410 472 38,000  Level FlightAware
10:06PM 34.2820 -80.5780 205° Southwest 409 471 38,000  Level FlightAware
10:06PM 34.2290 -80.6070 204° Southwest 408 470 38,000  Level FlightAware
10:07PM 34.1460 -80.6520 204° Southwest 407 468 38,000  Level FlightAware
10:07PM 34.0870 -80.6850 205° Southwest 407 468 38,000  Level FlightAware
10:08PM 34.0180 -80.7220 204° Southwest 407 468 38,000  Level FlightAware
10:09PM 33.9430 -80.7630 204° Southwest 407 468 38,000  Level FlightAware
10:09PM 33.8900 -80.7920 204° Southwest 408 470 38,000  Level FlightAware
10:10PM 33.8230 -80.8280 204° Southwest 408 470 38,000  Level FlightAware
10:11PM 33.7630 -80.8610 205° Southwest 410 472 38,000  Level FlightAware
10:11PM 33.7030 -80.8930 204° Southwest 411 473 38,000  Level FlightAware
10:12PM 33.6330 -80.9310 204° Southwest 413 475 38,000  Level FlightAware
10:12PM 33.5720 -80.9630 204° Southwest 413 475 38,000  Level FlightAware
10:13PM 33.5230 -80.9900 205° Southwest 414 476 38,000  Level FlightAware
10:13PM 33.4590 -81.0250 205° Southwest 415 478 38,000  Level FlightAware
10:14PM 33.3870 -81.0630 204° Southwest 416 479 38,000  Level FlightAware
10:15PM 33.3360 -81.0900 204° Southwest 416 479 38,000  Level FlightAware
10:15PM 33.2670 -81.1270 204° Southwest 413 475 38,000  Level FlightAware
10:16PM 33.2140 -81.1550 204° Southwest 413 475 38,000  Level FlightAware
10:16PM 33.1520 -81.1880 204° Southwest 413 475 38,000  Level FlightAware
10:17PM 33.0940 -81.2190 204° Southwest 413 475 38,000  Level FlightAware
10:18PM 33.0330 -81.2520 204° Southwest 411 473 38,000  Level FlightAware
10:18PM 32.9700 -81.2850 204° Southwest 411 473 38,000  Level FlightAware
10:19PM 32.9020 -81.3210 204° Southwest 412 474 38,000  Level FlightAware
10:19PM 32.8480 -81.3500 204° Southwest 413 475 38,000  Level FlightAware
10:20PM 32.7740 -81.3880 203° Southwest 413 475 38,000  Level FlightAware
10:21PM 32.7160 -81.4140 201° Southwest 413 475 38,000  Level FlightAware
10:22PM 32.6110 -81.4410 192° South 416 479 38,000  Level FlightAware
10:22PM 32.5540 -81.4600 196° South 416 479 38,000  Level FlightAware
10:23PM 32.4970 -81.4800 196° South 416 479 38,000  Level FlightAware
10:23PM 32.4410 -81.4990 196° South 416 479 38,000  Level FlightAware
10:24PM 32.3840 -81.5180 196° South 416 479 38,000  Level FlightAware
10:24PM 33.0990 -81.2160 19° North 38,000  Level FlightAware
10:24PM 32.2830 -81.5420 199° South 419 482 38,000  Level FlightAware
10:25PM 32.2010 -81.5680 195° South 421 484 38,000  Level FlightAware
10:26PM 32.1470 -81.5850 195° South 424 488 38,000  Level FlightAware
10:26PM 32.0770 -81.6070 195° South 424 488 38,000  Level FlightAware
10:27PM 32.0120 -81.6270 195° South 425 489 38,000  Level FlightAware
10:28PM 31.9310 -81.6520 195° South 423 487 38,000  Level FlightAware
10:28PM 31.8740 -81.6700 195° South 424 488 38,000  Level FlightAware
10:29PM 31.7910 -81.6950 194° South 424 488 38,000  Level FlightAware
10:30PM 31.7210 -81.7160 194° South 424 488 38,000  Level FlightAware
10:30PM 31.6450 -81.7390 194° South 425 489 38,000  Level FlightAware
10:31PM 31.5870 -81.7570 195° South 425 489 38,000  Level FlightAware
10:31PM 31.5280 -81.7740 194° South 425 489 38,000  Level FlightAware
10:32PM 31.4270 -81.8070 196° South 427 491 38,000  Level FlightAware
10:33PM 31.3710 -81.8240 195° South 427 491 38,000  Level FlightAware
10:33PM 31.3120 -81.8410 194° South 427 491 38,000  Level FlightAware
10:34PM 31.2540 -81.8580 194° South 427 491 38,000  Level FlightAware
10:34PM 31.1950 -81.8750 194° South 427 491 38,000  Level FlightAware
10:35PM 31.1360 -81.8920 194° South 427 491 38,000  Level FlightAware
10:36PM 31.0780 -81.9090 194° South 427 491 38,000  Level FlightAware
10:36PM 31.0170 -81.9270 194° South 427 491 38,000  Level FlightAware
10:37PM 30.9590 -81.9440 194° South 427 491 38,000  Level FlightAware
10:37PM 30.9000 -81.9610 194° South 427 491 38,000  Level FlightAware
10:38PM 30.8410 -81.9780 194° South 427 491 38,000  Level FlightAware
10:39PM 30.7830 -81.9950 194° South 427 491 38,000  Level FlightAware
10:39PM 30.7220 -82.0120 193° South 427 491 38,000  Level FlightAware
10:40PM 30.6640 -82.0290 194° South 427 491 38,000  Level FlightAware
10:40PM 30.6050 -82.0460 194° South 427 491 38,000  Level FlightAware
10:41PM 30.5460 -82.0630 194° South 427 491 38,000  Level FlightAware
10:42PM 30.4880 -82.0800 194° South 427 491 38,000 -874 Level FlightAware
10:46PM 29.7910 -82.2980 195° South 421 484 33,600 -1,043 Descending FlightAware
10:47PM 29.7300 -82.3170 195° South 420 483 32,800 -1,157 Descending FlightAware
10:47PM 29.6410 -82.3430 194° South 430 495 32,000 -1,658 Descending FlightAware
10:48PM 29.5830 -82.3550 190° South 428 493 30,700 -2,323 Descending FlightAware
10:48PM 29.5100 -82.3500 177° South 437 503 29,600 -2,314 Descending FlightAware
10:49PM 29.4410 -82.3410 174° South 435 501 28,000 -2,636 Descending FlightAware
10:50PM 29.3780 -82.3340 174° South 428 493 26,700 -2,750 Descending FlightAware
10:50PM 29.2980 -82.3240 174° South 426 490 24,700 -2,838 Descending FlightAware
10:51PM 29.2320 -82.3170 175° South 423 487 23,200 -2,609 Descending FlightAware
10:51PM 29.1640 -82.3080 173° South 414 476 21,700 -2,583 Descending FlightAware
10:52PM 29.0940 -82.3000 174° South 407 468 20,100 -2,522 Descending FlightAware
10:52PM 29.0340 -82.2930 174° South 397 457 18,800 -2,348 Descending FlightAware
10:53PM 28.9670 -82.2850 174° South 386 444 17,400 -2,384 Descending FlightAware
10:54PM 28.9030 -82.2770 174° South 379 436 15,900 -2,366 Descending FlightAware
10:54PM 28.8460 -82.2700 174° South 371 427 14,600 -2,294 Descending FlightAware
10:55PM 28.7890 -82.2640 175° South 363 418 13,300 -1,099 Descending FlightAware
10:55PM 28.7350 -82.2570 174° South 363 418 13,300  Level FlightAware
10:56PM 28.6840 -82.2510 174° South 363 418 13,300  Level FlightAware
10:57PM 28.6310 -82.2450 174° South 363 418 13,300 -2,441 Level FlightAware
10:57PM 28.5960 -82.2710 213° Southwest 294 338 10,900 -4,333 Descending FlightAware
10:57PM 28.5790 -82.2820 210° Southwest 291 335 10,700 -1,571 Descending FlightAware
10:58PM 28.5470 -82.3010 208° Southwest 292 336 9,800 -2,000 Descending FlightAware
10:58PM 28.5210 -82.3150 205° Southwest 289 333 9,100 -1,909 Descending FlightAware
10:58PM 28.4920 -82.3300 204° Southwest 282 325 8,400 -1,773 Descending FlightAware
10:59PM 28.4700 -82.3460 213° Southwest 278 320 7,800 -1,667 Descending FlightAware
10:59PM 28.4540 -82.3600 218° Southwest 275 316 7,400 -1,756 Descending FlightAware
10:59PM 28.4300 -82.3830 220° Southwest 269 310 6,600 -1,714 Descending FlightAware
11:00PM 28.4080 -82.4050 221° Southwest 268 308 6,000 -1,200 Descending FlightAware
11:00PM 28.3940 -82.4190 221° Southwest 264 304 5,800 -308 Descending FlightAware
11:01PM 28.3730 -82.4390 220° Southwest 266 306 5,800 -500 Level FlightAware
11:01PM 28.3590 -82.4480 209° Southwest 264 304 5,500 -1,667 Descending FlightAware
11:01PM 28.3310 -82.4580 197° South 255 293 4,800 -1,395 Descending FlightAware
11:01PM 28.3080 -82.4660 197° South 255 293 4,500 -1,050 Descending FlightAware
11:02PM 28.2850 -82.4740 197° South 252 290 4,100 -1,200 Descending FlightAware
11:02PM 28.2610 -82.4810 194° South 251 289 3,700 -1,467 Descending FlightAware
11:03PM 28.2320 -82.4910 197° South 254 292 3,000 -1,200 Descending FlightAware
11:03PM 28.2100 -82.4990 198° South 250 288 2,800 -300 Descending FlightAware
11:03PM 28.1890 -82.5060 196° South 234 269 2,800 150 Level FlightAware
11:04PM 28.1720 -82.5120 197° South 222 255 2,900 136 Climbing FlightAware
11:04PM 28.1460 -82.5200 195° South 204 235 2,900 -162 Level FlightAware
11:04PM 28.1350 -82.5240 198° South 190 219 2,800 -800 Descending FlightAware
11:04PM 28.1200 -82.5250 183° South 185 213 2,500 -1,050 Descending FlightAware
11:05PM 28.1000 -82.5250 180° South 183 211 2,100 -1,000 Descending FlightAware
11:05PM 28.0810 -82.5250 180° South 162 186 1,700 -800 Descending FlightAware
11:06PM 28.0670 -82.5260 184° South 145 167 1,500 -923 Descending FlightAware
11:06PM 28.0540 -82.5260 180° South 138 159 1,100 -875 Descending FlightAware
11:06PM 28.0360 -82.5270 183° South 127 146 800 -615 Descending FlightAware
11:07PM 28.0300 -82.5270 180° South 129 148 700 -686 Descending FlightAware
11:07PM 28.0150 -82.5270 180° South 133 153 400 -679 Descending FlightAware
11:07PM 27.9950 -82.5280 183° South 142 163 100 -327 Descending FlightAware
11:08PM 27.9800 -82.5290 183° South 142 163 100  Level FlightAware